TimeEST,TemperatureF,Dew PointF,Humidity,Sea Level PressureIn,VisibilityMPH,Wind Direction,Wind SpeedMPH,Gust SpeedMPH,PrecipitationIn,Events,Conditions,WindDirDegrees,DateUTC
12:41 AM,32.0,28.4,87,30.45,10.0,SSE,5.8,-,N/A,,Clear,150,2013-01-19 05:41:00
1:02 AM,32.0,28.4,87,30.45,10.0,South,4.6,-,N/A,,Clear,170,2013-01-19 06:02:00
1:24 AM,32.0,28.4,87,30.45,10.0,South,8.1,-,N/A,,Clear,180,2013-01-19 06:24:00
1:45 AM,32.0,26.6,80,30.44,10.0,South,6.9,-,N/A,,Clear,180,2013-01-19 06:45:00
2:06 AM,32.0,26.6,80,30.44,10.0,South,6.9,-,N/A,,Clear,180,2013-01-19 07:06:00
2:28 AM,35.6,30.2,81,30.44,10.0,South,6.9,-,N/A,,Clear,180,2013-01-19 07:28:00
2:49 AM,33.8,30.2,87,30.43,10.0,South,6.9,-,N/A,,Clear,180,2013-01-19 07:49:00
3:10 AM,32.0,28.4,87,30.43,10.0,South,4.6,-,N/A,,Clear,170,2013-01-19 08:10:00
3:32 AM,32.0,28.4,87,30.43,10.0,South,4.6,-,N/A,,Clear,170,2013-01-19 08:32:00
3:53 AM,32.0,30.2,93,30.42,10.0,South,6.9,-,N/A,,Clear,180,2013-01-19 08:53:00
4:14 AM,35.6,30.2,81,30.41,10.0,South,6.9,-,N/A,,Clear,170,2013-01-19 09:14:00
4:36 AM,35.6,30.2,81,30.41,10.0,South,5.8,-,N/A,,Clear,170,2013-01-19 09:36:00
4:57 AM,35.6,30.2,81,30.41,10.0,South,4.6,-,N/A,,Clear,180,2013-01-19 09:57:00
5:18 AM,35.6,30.2,81,30.41,10.0,South,8.1,-,N/A,,Clear,180,2013-01-19 10:18:00
5:40 AM,35.6,30.2,81,30.41,10.0,South,5.8,-,N/A,,Clear,180,2013-01-19 10:40:00
6:01 AM,35.6,30.2,81,30.41,10.0,South,6.9,-,N/A,,Clear,180,2013-01-19 11:01:00
6:22 AM,35.6,30.2,81,30.40,10.0,South,9.2,-,N/A,,Clear,180,2013-01-19 11:22:00
6:44 AM,35.6,30.2,81,30.40,10.0,SSW,5.8,-,N/A,,Clear,200,2013-01-19 11:44:00
7:05 AM,35.6,30.2,81,30.40,10.0,SSW,8.1,-,N/A,,Clear,200,2013-01-19 12:05:00
7:26 AM,35.6,30.2,81,30.39,10.0,South,8.1,-,N/A,,Clear,190,2013-01-19 12:26:00
7:47 AM,37.4,32.0,81,30.39,10.0,SSW,10.4,-,N/A,,Clear,200,2013-01-19 12:47:00
8:09 AM,37.4,30.2,75,30.39,10.0,SSW,11.5,20.7,N/A,,Clear,200,2013-01-19 13:09:00
8:30 AM,37.4,30.2,75,30.39,10.0,SSW,11.5,17.3,N/A,,Clear,200,2013-01-19 13:30:00
8:51 AM,37.4,30.2,75,30.39,10.0,SSW,11.5,16.1,N/A,,Clear,200,2013-01-19 13:51:00
9:12 AM,41.0,30.2,65,30.39,10.0,SSW,8.1,16.1,N/A,,Clear,210,2013-01-19 14:12:00
9:55 AM,41.0,30.2,65,30.40,10.0,SSW,11.5,17.3,N/A,,Clear,210,2013-01-19 14:55:00
10:16 AM,41.0,30.2,65,30.38,10.0,SSW,13.8,17.3,N/A,,Clear,200,2013-01-19 15:16:00
10:37 AM,42.8,32.0,66,30.37,10.0,SSW,11.5,18.4,N/A,,Clear,200,2013-01-19 15:37:00
10:59 AM,42.8,30.2,61,30.36,10.0,South,11.5,18.4,N/A,,Clear,190,2013-01-19 15:59:00
11:20 AM,42.8,32.0,66,30.33,10.0,SSW,9.2,18.4,N/A,,Clear,200,2013-01-19 16:20:00
11:41 AM,44.6,32.0,61,30.32,10.0,South,8.1,20.7,N/A,,Clear,190,2013-01-19 16:41:00
12:02 PM,44.6,32.0,61,30.30,10.0,SSW,13.8,-,N/A,,Clear,200,2013-01-19 17:02:00
12:24 PM,46.4,32.0,57,30.28,10.0,SSW,10.4,19.6,N/A,,Clear,200,2013-01-19 17:24:00
12:45 PM,46.4,32.0,57,30.27,10.0,South,15.0,21.9,N/A,,Clear,190,2013-01-19 17:45:00
1:06 PM,46.4,32.0,57,30.25,10.0,SSW,13.8,20.7,N/A,,Clear,210,2013-01-19 18:06:00
2:10 PM,50.0,33.8,54,30.22,10.0,South,12.7,18.4,N/A,,Clear,190,2013-01-19 19:10:00
2:31 PM,50.0,33.8,54,30.20,10.0,SSW,10.4,18.4,N/A,,Clear,200,2013-01-19 19:31:00
2:53 PM,50.0,33.8,54,30.20,10.0,South,10.4,18.4,N/A,,Clear,180,2013-01-19 19:53:00
3:14 PM,50.0,33.8,54,30.18,10.0,South,8.1,16.1,N/A,,Clear,170,2013-01-19 20:14:00
3:56 PM,46.4,35.6,66,30.17,10.0,South,6.9,16.1,N/A,,Clear,170,2013-01-19 20:56:00
4:18 PM,46.4,35.6,66,30.16,10.0,South,11.5,16.1,N/A,,Clear,170,2013-01-19 21:18:00
4:39 PM,44.6,35.6,71,30.16,10.0,South,11.5,16.1,N/A,,Clear,170,2013-01-19 21:39:00
5:00 PM,42.8,33.8,70,30.15,10.0,South,8.1,-,N/A,,Clear,170,2013-01-19 22:00:00
5:21 PM,42.8,35.6,76,30.15,10.0,South,8.1,-,N/A,,Clear,170,2013-01-19 22:21:00
5:43 PM,42.8,35.6,76,30.14,10.0,SSE,10.4,16.1,N/A,,Clear,160,2013-01-19 22:43:00
6:04 PM,41.0,33.8,76,30.14,10.0,South,8.1,-,N/A,,Clear,170,2013-01-19 23:04:00
6:25 PM,41.0,33.8,76,-9999,10.0,South,8.1,-,N/A,,Clear,170,2013-01-19 23:25:00
6:46 PM,41.0,33.8,76,30.13,10.0,South,6.9,-,N/A,,Clear,170,2013-01-19 23:46:00
7:29 PM,42.8,33.8,70,30.13,10.0,South,8.1,-,N/A,,Clear,170,2013-01-20 00:29:00
7:50 PM,42.8,33.8,70,30.12,10.0,South,9.2,-,N/A,,Clear,190,2013-01-20 00:50:00
8:33 PM,44.6,32.0,61,30.12,10.0,SSW,4.6,-,N/A,,Clear,210,2013-01-20 01:33:00
8:54 PM,44.6,32.0,61,30.11,10.0,SSW,5.8,-,N/A,,Clear,200,2013-01-20 01:54:00
9:15 PM,44.6,32.0,61,30.10,10.0,SSW,8.1,-,N/A,,Clear,200,2013-01-20 02:15:00
9:36 PM,44.6,32.0,61,30.10,10.0,SSW,9.2,16.1,N/A,,Clear,210,2013-01-20 02:36:00
9:58 PM,44.6,32.0,61,30.09,10.0,SSW,9.2,-,N/A,,Clear,210,2013-01-20 02:58:00
10:19 PM,44.6,32.0,61,30.08,10.0,SSW,9.2,-,N/A,,Clear,200,2013-01-20 03:19:00
10:40 PM,44.6,32.0,61,30.07,10.0,SSW,9.2,-,N/A,,Clear,200,2013-01-20 03:40:00
11:02 PM,42.8,32.0,66,30.06,10.0,SSW,9.2,-,N/A,,Clear,200,2013-01-20 04:02:00
11:23 PM,42.8,32.0,66,30.05,10.0,SSW,9.2,-,N/A,,Clear,210,2013-01-20 04:23:00